TimeEST,TemperatureF,Dew PointF,Humidity,Sea Level PressureIn,VisibilityMPH,Wind Direction,Wind SpeedMPH,Gust SpeedMPH,PrecipitationIn,Events,Conditions,WindDirDegrees,DateUTC
12:51 AM,28.9,21.0,72,30.20,10.0,SW,11.5,18.4,N/A,,Overcast,220,2013-01-05 05:51:00
1:51 AM,30.0,23.0,75,30.21,10.0,SW,12.7,-,N/A,,Overcast,230,2013-01-05 06:51:00
2:51 AM,30.0,23.0,75,30.23,10.0,SW,9.2,-,N/A,,Overcast,230,2013-01-05 07:51:00
3:51 AM,30.2,24.8,80,30.22,9.0,WSW,6.9,-,N/A,,Overcast,250,2013-01-05 08:51:00
4:32 AM,30.2,24.8,80,30.23,9.0,WSW,8.1,-,N/A,,Overcast,240,2013-01-05 09:32:00
4:51 AM,30.2,24.8,80,30.23,9.0,SW,5.8,-,N/A,,Overcast,230,2013-01-05 09:51:00
5:18 AM,28.4,23.0,80,30.24,10.0,SSW,10.4,-,N/A,,Overcast,210,2013-01-05 10:18:00
5:51 AM,28.9,23.0,78,30.27,9.0,SSW,11.5,-,N/A,,Overcast,210,2013-01-05 10:51:00
6:51 AM,28.4,21.2,74,30.27,9.0,SW,11.5,-,N/A,,Overcast,230,2013-01-05 11:51:00
7:51 AM,28.0,21.9,78,30.31,9.0,South,6.9,-,N/A,,Overcast,190,2013-01-05 12:51:00
8:51 AM,28.4,21.2,74,30.29,8.0,SSW,8.1,-,N/A,,Overcast,200,2013-01-05 13:51:00
9:51 AM,28.4,23.0,80,30.31,8.0,SSW,12.7,-,N/A,,Overcast,210,2013-01-05 14:51:00
10:51 AM,28.9,21.9,75,30.35,8.0,South,12.7,-,N/A,,Overcast,190,2013-01-05 15:51:00
11:51 AM,28.9,21.0,72,30.32,9.0,SSW,10.4,-,N/A,,Overcast,210,2013-01-05 16:51:00
12:51 PM,28.9,21.0,72,30.29,9.0,South,11.5,20.7,N/A,,Overcast,180,2013-01-05 17:51:00
1:51 PM,30.0,21.0,69,30.26,8.0,South,10.4,-,N/A,,Overcast,180,2013-01-05 18:51:00
2:51 PM,30.9,21.9,69,30.24,9.0,South,8.1,-,N/A,,Scattered Clouds,170,2013-01-05 19:51:00
3:51 PM,30.9,21.0,67,30.23,9.0,South,11.5,-,N/A,,Clear,170,2013-01-05 20:51:00
4:51 PM,30.9,21.0,67,30.20,9.0,SSE,10.4,-,N/A,,Clear,160,2013-01-05 21:51:00
5:51 PM,30.9,21.0,67,30.19,10.0,South,11.5,-,N/A,,Clear,180,2013-01-05 22:51:00
6:51 PM,30.9,21.9,69,30.18,10.0,South,12.7,-,N/A,,Clear,170,2013-01-05 23:51:00
7:51 PM,32.0,21.9,66,30.17,10.0,South,12.7,-,N/A,,Scattered Clouds,170,2013-01-06 00:51:00
8:51 PM,33.1,21.9,64,30.15,10.0,South,15.0,24.2,N/A,,Overcast,190,2013-01-06 01:51:00
9:51 PM,34.0,21.9,61,30.11,10.0,SSW,15.0,23.0,N/A,,Overcast,200,2013-01-06 02:51:00
10:51 PM,34.0,23.0,64,30.11,10.0,SSW,15.0,20.7,N/A,,Overcast,200,2013-01-06 03:51:00
11:51 PM,35.6,24.8,65,30.07,9.0,SSW,13.8,-,N/A,,Overcast,210,2013-01-06 04:51:00